Bastrop, LA

2:49 AM CST on February 12, 2016 (GMT -0600)
Bastrop

Weather History for KBQP - June, 2013

Change the Weather History Date:

Monday, June 10, 2013

  Actual Average (KMLU) Record (KMLU)
Temperature  
Mean Temperature 80 °F 80 °F  
Max Temperature 93 °F 91 °F 100 °F (1963)
Min Temperature 68 °F 69 °F 54 °F (1930)
Degree Days  
Heating Degree Days 0 0  
Month to date heating degree days 0  
Since 1 June heating degree days 0  
Since 1 July heating degree days 2230  
Cooling Degree Days 15 15  
Month to date cooling degree days 139  
Year to date cooling degree days 574  
Since 1 June cooling degree days 139  
Growing Degree Days 30 (Base 50)    
Moisture  
Dew Point 69 °F    
Average Humidity 71    
Maximum Humidity 93    
Minimum Humidity 45    
Precipitation  
Precipitation 0.00 in 0.15 in 2.31 in (1975)
Month to date precipitation 1.49  
Year to date precipitation 25.54  
Snow  
Snow 0.00 in - - ()
Month to date snowfall  
Since 1 June snowfall  
Since 1 July snowfall  
Snow Depth -    
Sea Level Pressure  
Sea Level Pressure 29.97 in    
Wind  
Wind Speed 1 mph (WSW)    
Max Wind Speed 9 mph    
Max Gust Speed -    
Visibility 9 miles    
Events      
T = Trace of Precipitation, MM = Missing Value Source: NWS Daily Summary

Daily Weather History Graph

Daily Weather History Graph

Search for Another Location

Airport or City:

Trip Planner

Search our weather history database for the weather conditions in past years. The results will help you decide how hot, cold, wet, or windy it might be!

Date:

Astronomy

Jun. 10, 2013 Rise Set
Actual Time 5:58 AM CDT 8:15 PM CDT
Civil Twilight 5:30 AM CDT 8:43 PM CDT
Nautical Twilight 4:55 AM CDT 9:18 PM CDT
Astronomical Twilight 4:17 AM CDT 9:56 PM CDT
Moon 7:43 AM CDT (6/10) 9:47 PM CDT (6/10)
Length of Visible Light 15h 13m
Length of Day
14h 16m
Waxing Crescent, 4% of the Moon is Illuminated
Jun 10
Waxing Crescent
Jun 16
First Quarter
Jun 23
Full
Jun 29
Last Quarter
Jul 8
New

Hourly Weather History & Observations

Time (CDT) Temp. Heat Index Dew Point Humidity Pressure Visibility Wind Dir Wind Speed Gust Speed Precip Events Conditions
12:15 AM 72.9 °F - 69.3 °F 88% 29.96 in 10.0 mi Calm Calm - N/A   Clear
12:35 AM 72.7 °F - 69.4 °F 90% 29.96 in 10.0 mi Calm Calm - N/A   Clear
12:55 AM 71.8 °F - 68.9 °F 91% 29.96 in 10.0 mi Calm Calm - N/A   Clear
1:15 AM 71.6 °F - 68.9 °F 91% 29.95 in 10.0 mi Calm Calm - N/A   Clear
1:35 AM 71.1 °F - 68.5 °F 92% 29.96 in 7.0 mi Calm Calm - N/A   Clear
1:55 AM 71.6 °F - 69.1 °F 92% 29.96 in 7.0 mi Calm Calm - N/A   Clear
2:15 AM 71.4 °F - 68.9 °F 92% 29.96 in 7.0 mi Calm Calm - N/A   Clear
2:35 AM 70.7 °F - 68.4 °F 92% 29.95 in 5.0 mi Calm Calm - N/A   Clear
2:55 AM 71.1 °F - 68.9 °F 93% 29.95 in 5.0 mi Calm Calm - N/A   Scattered Clouds
3:15 AM 71.1 °F - 68.9 °F 93% 29.95 in 5.0 mi Calm Calm - N/A   Mostly Cloudy
3:35 AM 71.1 °F - 68.9 °F 93% 29.95 in 5.0 mi Calm Calm - N/A   Mostly Cloudy
3:55 AM 70.7 °F - 68.4 °F 92% 29.96 in 7.0 mi Calm Calm - N/A   Scattered Clouds
4:15 AM 70.7 °F - 68.4 °F 92% 29.96 in 7.0 mi Calm Calm - N/A   Clear
4:35 AM 70.5 °F - 68.0 °F 92% 29.96 in 7.0 mi Calm Calm - N/A   Clear
4:55 AM 70.0 °F - 67.5 °F 92% 29.97 in 7.0 mi Calm Calm - N/A   Clear
5:15 AM 69.8 °F - 67.3 °F 92% 29.97 in 5.0 mi Calm Calm - N/A   Clear
5:35 AM 69.3 °F - 67.1 °F 93% 29.97 in 5.0 mi Calm Calm - N/A   Clear
5:55 AM 68.9 °F - 66.7 °F 93% 29.98 in 2.5 mi Calm Calm - N/A   Clear
6:15 AM 68.9 °F - 66.7 °F 93% 29.98 in 5.0 mi Calm Calm - N/A   Clear
6:35 AM 69.6 °F - 67.3 °F 92% 29.98 in 7.0 mi Calm Calm - N/A   Clear
6:55 AM 70.7 °F - 68.2 °F 92% 29.97 in 10.0 mi Calm Calm - N/A   Clear
7:15 AM 71.6 °F - 68.4 °F 89% 29.97 in 10.0 mi Calm Calm - N/A   Clear
7:35 AM 73.4 °F - 68.4 °F 84% 29.97 in 10.0 mi Calm Calm - N/A   Clear
7:55 AM 74.7 °F - 68.5 °F 81% 29.98 in 10.0 mi Calm Calm - N/A   Clear
8:15 AM 76.1 °F - 68.7 °F 78% 29.98 in 10.0 mi West 3.5 mph - N/A   Clear
8:35 AM 77.9 °F - 68.4 °F 72% 29.98 in 10.0 mi Calm Calm - N/A   Clear
8:55 AM 79.7 °F - 67.8 °F 67% 29.99 in 10.0 mi West 8.1 mph - N/A   Clear
9:15 AM 81.1 °F 84.0 °F 68.2 °F 65% 29.99 in 10.0 mi Calm Calm - N/A   Clear
9:35 AM 82.0 °F 84.9 °F 67.6 °F 62% 29.99 in 10.0 mi WNW 9.2 mph - N/A   Clear
9:55 AM 82.9 °F 86.3 °F 68.5 °F 62% 29.99 in 10.0 mi West 5.8 mph - N/A   Clear
10:15 AM 84.6 °F 88.8 °F 69.6 °F 61% 29.99 in 10.0 mi West 4.6 mph - N/A   Clear
10:35 AM 85.3 °F 88.8 °F 68.4 °F 57% 29.99 in 10.0 mi West 5.8 mph - N/A   Clear
10:55 AM 86.0 °F 89.4 °F 68.4 °F 55% 29.99 in 10.0 mi West 8.1 mph - N/A   Clear
11:15 AM 86.9 °F 91.0 °F 68.7 °F 55% 30.00 in 10.0 mi Calm Calm - N/A   Clear
11:35 AM 87.6 °F 91.9 °F 68.9 °F 54% 30.00 in 10.0 mi Calm Calm - N/A   Clear
11:55 AM 88.7 °F 93.9 °F 70.3 °F 54% 30.00 in 10.0 mi West 3.5 mph - N/A   Clear
12:15 PM 89.1 °F 93.7 °F 69.6 °F 52% 30.00 in 10.0 mi Calm Calm - N/A   Clear
12:35 PM 89.4 °F 93.5 °F 68.4 °F 50% 29.99 in 10.0 mi Calm Calm - N/A   Clear
12:55 PM 90.5 °F 95.1 °F 69.1 °F 49% 29.99 in 10.0 mi West 3.5 mph - N/A   Clear
1:15 PM 90.5 °F 94.2 °F 68.0 °F 47% 29.99 in 10.0 mi WSW 5.8 mph - N/A   Clear
1:35 PM 90.9 °F 96.2 °F 69.8 °F 50% 29.98 in 10.0 mi SW 5.8 mph - N/A   Clear
1:55 PM 91.0 °F 96.6 °F 70.0 °F 50% 29.98 in 10.0 mi Calm Calm - N/A   Clear
2:15 PM 91.6 °F 96.2 °F 68.7 °F 47% 29.98 in 10.0 mi Calm Calm - N/A   Clear
2:35 PM 91.8 °F 97.0 °F 69.3 °F 48% 29.98 in 10.0 mi SW 3.5 mph - N/A   Clear
2:55 PM 91.8 °F 97.0 °F 69.6 °F 48% 29.98 in 10.0 mi SSW 4.6 mph - N/A   Clear
3:15 PM 92.5 °F 96.9 °F 68.2 °F 45% 29.97 in 10.0 mi Calm Calm - N/A   Clear
3:35 PM 92.5 °F 96.9 °F 68.2 °F 45% 29.97 in 10.0 mi SW 9.2 mph - N/A   Clear
3:55 PM 92.7 °F 98.3 °F 69.8 °F 47% 29.97 in 10.0 mi SSW 4.6 mph - N/A   Clear
4:15 PM 92.7 °F 98.8 °F 70.2 °F 48% 29.97 in 10.0 mi South 5.8 mph - N/A   Clear
4:35 PM 92.7 °F 98.8 °F 70.2 °F 48% 29.96 in 10.0 mi SSW 5.8 mph - N/A   Clear
4:55 PM 92.7 °F 97.7 °F 69.3 °F 46% 29.96 in 10.0 mi Calm Calm - N/A   Clear
5:15 PM 92.5 °F 97.4 °F 69.1 °F 46% 29.96 in 10.0 mi South 5.8 mph - N/A   Clear
5:35 PM 92.5 °F 98.4 °F 70.3 °F 48% 29.95 in 10.0 mi Calm Calm - N/A   Clear
5:55 PM 92.7 °F 97.7 °F 68.9 °F 46% 29.95 in 10.0 mi Calm Calm - N/A   Clear
6:15 PM 92.3 °F 97.6 °F 69.6 °F 47% 29.95 in 10.0 mi SSW 4.6 mph - N/A   Clear
6:35 PM 91.4 °F 97.8 °F 70.7 °F 51% 29.95 in 10.0 mi Calm Calm - N/A   Clear
6:55 PM 91.0 °F 97.6 °F 71.4 °F 52% 29.95 in 10.0 mi Calm Calm - N/A   Clear
7:15 PM 89.6 °F 97.2 °F 72.5 °F 57% 29.95 in 10.0 mi Calm Calm - N/A   Clear
7:35 PM 88.0 °F 94.7 °F 72.1 °F 59% 29.96 in 10.0 mi Calm Calm - N/A   Clear
7:55 PM 86.0 °F 91.8 °F 71.6 °F 62% 29.96 in 10.0 mi Calm Calm - N/A   Clear
8:15 PM 84.4 °F 89.7 °F 71.4 °F 65% 29.96 in 10.0 mi Calm Calm - N/A   Clear
8:35 PM 79.7 °F - 73.4 °F 81% 29.96 in 10.0 mi Calm Calm - N/A   Clear
8:55 PM 78.8 °F - 72.9 °F 82% 29.96 in 10.0 mi Calm Calm - N/A   Clear
9:15 PM 77.5 °F - 72.5 °F 84% 29.96 in 10.0 mi Calm Calm - N/A   Clear
9:35 PM 77.0 °F - 72.3 °F 85% 29.97 in 10.0 mi Calm Calm - N/A   Clear
9:55 PM 76.6 °F - 71.8 °F 85% 29.97 in 10.0 mi Calm Calm - N/A   Clear
10:15 PM 76.3 °F - 71.8 °F 86% 29.98 in 10.0 mi Calm Calm - N/A   Clear
10:35 PM 75.6 °F - 71.6 °F 87% 29.99 in 10.0 mi Calm Calm - N/A   Clear
10:55 PM 75.7 °F - 71.6 °F 87% 29.99 in 10.0 mi Calm Calm - N/A   Clear
11:15 PM 75.4 °F - 70.9 °F 86% 29.99 in 10.0 mi Calm Calm - N/A   Clear
11:35 PM 74.8 °F - 70.7 °F 87% 29.99 in 10.0 mi Calm Calm - N/A   Clear
11:55 PM 75.2 °F - 70.9 °F 86% 29.99 in 10.0 mi Calm Calm - N/A   Clear